Total_Precipitation_Accumulation
0.05 0.10 0.11 0.14 0.15 0.18 0.24 0.28 0.35 0.44 0.44 0.51 0.61 0.85 0.97 1.19 1.34 1.56 1.69 1.74 1.69 1.75 1.96 2.27 2.73 3.44 3.91 4.09 4.18 4.36 4.40 4.48 4.52 4.55 4.55 4.69 4.86 4.87 4.85 4.96 5.00 4.88 4.82 4.97
0.10 0.12 0.09 0.11 0.16 0.18 0.26 0.31 0.37 0.44 0.42 0.50 0.68 0.90 1.05 1.22 1.34 1.46 1.55 1.59 1.56 1.59 1.85 2.27 2.75 3.23 3.51 3.90 4.10 4.34 4.36 4.52 4.80 5.21 5.71 5.97 6.08 5.92 5.75 5.64 5.57 5.44 5.36 5.48
0.12 0.09 0.06 0.08 0.15 0.19 0.26 0.29 0.38 0.48 0.53 0.57 0.77 1.18 1.28 1.36 1.51 1.66 1.69 1.75 1.80 1.66 1.84 2.18 2.42 2.82 3.11 3.51 3.87 4.14 4.47 4.85 5.37 6.03 6.84 7.17 6.94 6.48 6.24 5.94 5.87 5.64 5.43 5.41
0.08 0.07 0.07 0.09 0.11 0.17 0.24 0.20 0.28 0.36 0.53 0.67 0.66 1.27 1.61 1.74 1.87 2.00 1.84 1.78 1.82 1.82 1.83 1.99 2.23 2.56 2.77 3.12 3.61 4.09 4.62 5.20 5.88 6.51 6.98 7.21 7.11 6.85 6.53 6.06 5.65 5.27 4.95 4.76
0.11 0.09 0.13 0.16 0.11 0.14 0.16 0.16 0.22 0.28 0.39 0.61 0.61 0.98 1.64 1.91 2.03 2.07 1.92 1.87 1.83 1.81 1.71 1.81 1.98 2.24 2.58 3.03 3.52 4.03 4.54 5.23 5.72 6.26 6.69 6.97 7.01 6.91 6.53 5.80 5.14 4.70 4.33 4.08
0.09 0.10 0.14 0.13 0.10 0.12 0.15 0.19 0.27 0.34 0.46 0.74 0.59 0.89 1.69 2.13 2.18 2.04 1.98 1.98 1.81 1.72 1.74 1.77 1.84 2.02 2.53 2.96 3.49 3.89 4.24 4.96 5.64 6.14 6.51 6.81 6.82 6.64 5.99 5.25 4.67 4.26 3.92 3.67
0.22 0.18 0.15 0.13 0.14 0.15 0.18 0.34 0.67 0.84 0.92 0.84 0.58 0.93 1.71 1.89 1.86 1.83 1.70 1.64 1.68 1.65 1.62 1.64 1.88 2.07 2.66 3.08 3.36 3.61 3.90 4.35 4.85 5.32 5.64 5.84 5.89 5.64 5.19 4.76 4.28 3.90 3.64 3.36
0.38 0.31 0.18 0.13 0.12 0.15 0.19 0.34 0.76 1.03 1.06 0.95 0.91 1.57 2.13 1.84 1.75 1.76 1.71 1.54 1.53 1.62 1.57 1.58 1.83 2.10 2.32 2.61 2.90 3.18 3.39 3.67 3.94 4.17 4.43 4.41 4.42 4.40 4.19 3.82 3.39 3.11 2.82 2.62
0.42 0.35 0.18 0.13 0.11 0.13 0.22 0.29 0.34 0.58 0.66 0.95 1.36 1.83 2.25 2.10 2.00 1.76 1.67 1.63 1.61 1.58 1.55 1.63 1.84 2.01 2.10 2.28 2.53 2.74 2.84 3.06 3.17 3.14 3.12 3.15 3.13 3.19 3.19 3.03 2.71 2.38 2.13 1.98
0.36 0.36 0.24 0.17 0.14 0.16 0.21 0.26 0.38 0.71 1.00 1.27 1.54 2.22 2.74 2.67 2.40 2.08 1.81 1.66 1.51 1.54 1.59 1.67 1.81 2.01 2.13 2.15 2.34 2.49 2.45 2.50 2.59 2.64 2.50 2.39 2.46 2.54 2.53 2.47 2.26 2.03 1.84 1.68
0.38 0.48 0.35 0.24 0.24 0.25 0.26 0.32 0.45 0.69 0.83 1.36 1.88 2.59 2.56 2.62 2.45 2.32 2.23 1.84 1.63 1.68 1.71 1.80 1.81 1.86 1.92 1.95 2.01 2.12 2.13 2.15 2.18 2.21 2.22 2.16 2.08 2.01 2.00 2.04 1.99 1.84 1.71 1.59
0.39 0.47 0.51 0.34 0.29 0.26 0.29 0.34 0.49 0.87 0.98 1.14 1.68 2.58 2.17 2.50 2.59 2.44 2.28 1.96 1.82 1.83 1.83 1.94 1.94 1.84 1.84 1.98 2.08 2.00 1.99 1.99 1.99 1.97 2.02 2.07 1.88 1.76 1.73 1.72 1.69 1.58 1.54 1.51
0.35 0.53 0.79 0.80 0.69 0.46 0.40 0.37 0.44 0.59 0.89 1.13 1.60 2.48 2.27 2.41 2.61 2.40 2.16 1.99 1.95 1.98 2.04 2.16 2.07 1.85 1.78 1.82 1.86 1.74 1.66 1.68 1.54 1.50 1.64 1.77 1.61 1.49 1.50 1.47 1.46 1.45 1.40 1.38
0.30 0.57 1.04 1.45 1.19 0.70 0.54 0.42 0.42 0.58 0.94 1.11 1.38 1.92 2.08 2.18 2.24 2.21 2.10 2.01 2.01 2.00 1.95 2.07 2.09 1.90 1.82 1.69 1.66 1.55 1.43 1.43 1.41 1.36 1.37 1.43 1.45 1.42 1.37 1.34 1.34 1.31 1.26 1.22
0.33 0.58 0.68 0.66 0.51 0.51 0.53 0.48 0.50 0.59 0.71 1.06 1.34 1.64 1.88 2.15 2.27 2.32 2.15 1.98 1.93 1.93 1.94 2.05 2.00 1.84 1.82 1.78 1.69 1.48 1.37 1.36 1.37 1.40 1.40 1.37 1.35 1.29 1.29 1.29 1.27 1.18 1.16 1.09
0.36 0.51 0.59 0.62 0.52 0.54 0.62 0.59 0.61 0.70 0.81 1.02 1.31 1.74 2.01 2.31 2.37 2.25 2.07 1.96 2.02 2.03 1.99 1.94 1.86 1.82 1.82 1.82 1.74 1.51 1.34 1.27 1.33 1.42 1.43 1.39 1.36 1.29 1.28 1.31 1.30 1.26 1.24 1.21
0.44 0.61 0.88 0.87 0.65 0.78 1.16 0.99 0.93 0.99 1.01 1.22 1.51 1.75 1.92 2.18 2.30 2.23 2.08 2.09 2.22 2.20 2.27 2.16 2.02 2.01 2.03 1.92 1.74 1.61 1.41 1.33 1.33 1.37 1.38 1.44 1.40 1.31 1.24 1.23 1.34 1.34 1.36 1.30
0.52 0.75 1.04 1.04 1.17 1.73 1.58 1.01 0.99 1.12 1.10 1.14 1.24 1.36 1.56 1.81 1.92 1.92 1.98 2.09 2.23 2.24 2.24 2.17 2.09 2.11 2.08 1.95 1.85 1.72 1.50 1.36 1.31 1.29 1.24 1.29 1.31 1.31 1.26 1.28 1.34 1.38 1.44 1.43
0.44 0.80 1.24 1.38 1.63 1.83 1.62 1.15 1.04 1.35 1.63 1.23 1.19 1.25 1.33 1.36 1.64 1.95 1.89 1.83 1.98 2.06 2.06 2.05 2.03 2.09 2.04 1.92 1.83 1.72 1.54 1.35 1.21 1.18 1.16 1.11 1.10 1.13 1.17 1.19 1.29 1.44 1.48 1.43
0.47 0.77 1.30 1.57 1.99 2.25 1.81 0.99 0.84 1.37 2.22 1.48 1.34 1.35 1.46 1.60 2.00 2.03 1.68 1.60 1.71 1.82 1.85 1.83 1.81 1.85 1.89 1.85 1.78 1.74 1.65 1.44 1.21 1.06 1.00 1.03 1.08 1.09 1.11 1.18 1.29 1.31 1.36 1.35
0.94 1.09 1.33 1.63 2.16 2.17 1.28 0.81 0.99 2.06 2.37 1.55 1.45 1.44 1.49 1.65 1.79 1.66 1.47 1.55 1.69 1.74 1.73 1.60 1.51 1.54 1.60 1.62 1.63 1.60 1.51 1.33 1.05 0.93 0.90 0.96 0.98 1.01 1.03 1.17 1.22 1.22 1.19 1.26
1.38 1.64 1.75 1.92 2.33 2.40 1.24 1.04 1.63 1.94 1.40 1.32 1.41 1.37 1.37 1.27 1.19 1.31 1.44 1.58 1.67 1.72 1.67 1.51 1.43 1.33 1.29 1.31 1.44 1.47 1.29 1.05 0.91 0.86 0.85 0.85 0.83 0.77 0.81 1.09 1.22 1.20 1.26 1.22
1.44 1.77 1.99 2.21 2.37 1.91 1.35 1.40 1.43 1.34 1.29 1.24 1.26 1.17 1.14 1.16 1.16 1.26 1.42 1.50 1.61 1.58 1.49 1.37 1.24 1.13 1.05 1.11 1.19 1.17 1.06 0.90 0.78 0.81 0.85 0.82 0.76 0.79 0.79 0.88 0.98 1.04 1.13 1.08
1.50 1.40 1.60 1.87 1.90 1.65 1.50 1.44 1.31 1.19 1.19 1.13 1.17 1.19 1.20 1.23 1.21 1.24 1.35 1.37 1.47 1.46 1.34 1.21 1.17 1.10 1.02 0.98 0.93 0.89 0.78 0.77 0.78 0.84 0.89 0.87 0.83 0.82 0.80 0.79 0.79 0.74 0.78 0.83
1.41 1.57 1.83 2.00 1.94 1.78 1.59 1.34 1.20 1.18 1.22 1.20 1.21 1.20 1.19 1.27 1.31 1.31 1.32 1.28 1.29 1.30 1.20 1.10 1.20 1.15 1.04 0.92 0.84 0.75 0.68 0.71 0.87 0.91 0.86 0.84 0.79 0.75 0.75 0.71 0.69 0.63 0.62 0.68
1.11 1.51 1.97 2.10 1.78 1.72 1.60 1.39 1.24 1.27 1.38 1.33 1.23 1.19 1.11 1.15 1.18 1.15 1.14 1.08 1.08 1.11 1.06 1.03 1.11 1.08 0.99 0.90 0.86 0.77 0.69 0.68 0.79 0.86 0.83 0.75 0.72 0.69 0.63 0.60 0.57 0.50 0.46 0.50